Philip, SD

11:40 PM MST on January 23, 2018 (GMT -0700)
Philip

Weather History for KPHP - September, 2013

Change the Weather History Date:

Wednesday, September 4, 2013

  Actual Average Record
Temperature  
Mean Temperature 81 °F 68 °F  
Max Temperature 93 °F 83 °F 108 °F (2001)
Min Temperature 68 °F 52 °F 33 °F (1962)
Degree Days  
Heating Degree Days 0 2  
Month to date heating degree days 0 8  
Since 1 July heating degree days 3 33  
Cooling Degree Days 16 5  
Month to date cooling degree days 41 21  
Year to date cooling degree days 804 756  
Growing Degree Days 30 (Base 50)    
Moisture  
Dew Point 61 °F    
Average Humidity 55    
Maximum Humidity 76    
Minimum Humidity 33    
Precipitation  
Precipitation 0.00 in 0.05 in 1.59 in (1971)
Month to date precipitation 0.00 0.19  
Year to date precipitation 10.41 13.57  
Sea Level Pressure  
Sea Level Pressure 29.96 in    
Wind  
Wind Speed 10 mph (ENE)    
Max Wind Speed 16 mph    
Max Gust Speed 28 mph    
Visibility 10 miles    
Events      
T = Trace of Precipitation, MM = Missing Value Source: NWS Daily Summary

Daily Weather History Graph

Daily Weather History Graph

Search for Another Location

Airport or City:

Trip Planner

Search our weather history database for the weather conditions in past years. The results will help you decide how hot, cold, wet, or windy it might be!

Date:

Astronomy

Sep. 04, 2013 Rise Set
Actual Time 6:13 AM MDT 7:16 PM MDT
Civil Twilight 5:43 AM MDT 7:45 PM MDT
Nautical Twilight 5:08 AM MDT 8:21 PM MDT
Astronomical Twilight 4:31 AM MDT 8:58 PM MDT
Moon 5:27 AM MDT (9/4) 6:35 PM MDT (9/4)
Length of Visible Light 14h 02m
Length of Day
13h 03m
Waning Crescent, 1% of the Moon is Illuminated
Sep 4
Waning Crescent
Sep 5
New
Sep 12
First Quarter
Sep 19
Full
Sep 26
Last Quarter

Hourly Weather History & Observations

Time (MDT) Temp. Heat Index Dew Point Humidity Pressure Visibility Wind Dir Wind Speed Gust Speed Precip Events Conditions
12:55 AM 73.0 °F - 59.0 °F 61% 29.89 in 10.0 mi NE 12.7 mph - N/A   Clear
1:55 AM 72.0 °F - 60.1 °F 66% 29.89 in 10.0 mi NE 10.4 mph - N/A   Clear
2:55 AM 71.1 °F - 60.1 °F 68% 29.90 in 10.0 mi ENE 9.2 mph - N/A   Clear
3:55 AM 70.0 °F - 60.1 °F 71% 29.92 in 10.0 mi NNE 8.1 mph - N/A   Clear
4:55 AM 68.0 °F - 60.1 °F 76% 29.94 in 10.0 mi NNE 6.9 mph - N/A   Partly Cloudy
5:55 AM 68.0 °F - 60.1 °F 76% 29.95 in 10.0 mi NNE 6.9 mph - N/A   Partly Cloudy
6:55 AM 70.0 °F - 61.0 °F 73% 29.97 in 10.0 mi NNE 5.8 mph - N/A   Scattered Clouds
7:55 AM 73.9 °F - 61.0 °F 64% 29.99 in 10.0 mi ENE 8.1 mph - N/A   Clear
8:55 AM 78.1 °F - 60.1 °F 54% 29.99 in 10.0 mi Variable 4.6 mph - N/A   Partly Cloudy
9:55 AM 82.0 °F 82.4 °F 60.1 °F 47% 29.99 in 10.0 mi ENE 9.2 mph - N/A   Clear
10:55 AM 84.9 °F 84.4 °F 59.0 °F 41% 30.00 in 10.0 mi East 10.4 mph - N/A   Clear
11:55 AM 87.1 °F 86.5 °F 59.0 °F 39% 30.00 in 10.0 mi East 10.4 mph - N/A   Clear
12:55 PM 90.0 °F 89.7 °F 60.1 °F 37% 29.97 in 10.0 mi East 16.1 mph 20.7 mph N/A   Clear
1:55 PM 91.9 °F 91.5 °F 60.1 °F 34% 29.97 in 10.0 mi East 15.0 mph 19.6 mph N/A   Clear
2:55 PM 93.0 °F 93.0 °F 61.0 °F 34% 29.96 in 10.0 mi East 12.7 mph - N/A   Clear
3:55 PM 93.0 °F 93.0 °F 61.0 °F 34% 29.95 in 10.0 mi East 12.7 mph 20.7 mph N/A   Clear
4:55 PM 91.9 °F 91.8 °F 61.0 °F 35% 29.95 in 10.0 mi East 11.5 mph 20.7 mph N/A   Clear
5:55 PM 90.0 °F 90.0 °F 61.0 °F 38% 29.96 in 10.0 mi East 15.0 mph - N/A   Clear
6:55 PM 84.9 °F 85.4 °F 62.1 °F 46% 29.97 in 10.0 mi East 12.7 mph - N/A   Clear
7:55 PM 81.0 °F 82.2 °F 63.0 °F 54% 29.98 in 10.0 mi East 9.2 mph - N/A   Clear
8:55 PM 79.0 °F - 62.1 °F 56% 30.00 in 10.0 mi East 8.1 mph - N/A   Clear
9:55 PM 78.1 °F - 62.1 °F 58% 29.99 in 10.0 mi ENE 10.4 mph - N/A   Clear
10:55 PM 73.9 °F - 62.1 °F 66% 29.99 in 10.0 mi East 6.9 mph - N/A   Clear
11:55 PM 73.0 °F - 62.1 °F 68% 29.99 in 10.0 mi ENE 6.9 mph - N/A   Clear